, AK

(GMT )
Valdez Airport

Weather History for PAVD - September, 2013

Change the Weather History Date:

Monday, September 30, 2013

  Actual Average Record
Temperature  
Mean Temperature 52 °F -  
Max Temperature 57 °F 49 °F 60 °F (1967)
Min Temperature 46 °F 38 °F 28 °F (1996)
Degree Days  
Heating Degree Days 14    
Growing Degree Days 2 (Base 50)    
Moisture  
Dew Point 30 °F    
Average Humidity 41    
Maximum Humidity 58    
Minimum Humidity 33    
Precipitation  
Precipitation 0.00 in - - ()
Sea Level Pressure  
Sea Level Pressure 29.38 in    
Wind  
Wind Speed 8 mph (ENE)    
Max Wind Speed 21 mph    
Max Gust Speed 29 mph    
Visibility 10 miles    
Events      
Averages and records for this station are not official NWS values.
T = Trace of Precipitation, MM = Missing Value Source: NWS Daily Summary

Daily Weather History Graph

Daily Weather History Graph

Search for Another Location

Airport or City:

Trip Planner

Search our weather history database for the weather conditions in past years. The results will help you decide how hot, cold, wet, or windy it might be!

Date:

Astronomy

Sep. 30, 2013 Rise Set
Actual Time 7:50 AM AKDT 7:18 PM AKDT
Civil Twilight 7:07 AM AKDT 8:01 PM AKDT
Nautical Twilight 6:16 AM AKDT 8:51 PM AKDT
Astronomical Twilight 5:22 AM AKDT 9:44 PM AKDT
Moon 2:36 AM AKDT (9/30) 5:44 PM AKDT (9/30)
Length of Visible Light 12h 53m
Length of Day
11h 28m
Waning Crescent, 18% of the Moon is Illuminated
Sep 30
Waning Crescent
Oct 4
New
Oct 11
First Quarter
Oct 18
Full
Oct 26
Last Quarter

Hourly Weather History & Observations

Time (AKDT) Temp. Dew Point Humidity Pressure Visibility Wind Dir Wind Speed Gust Speed Precip Events Conditions
12:16 AM 55.4 °F 28.4 °F 36% 29.22 in 10.0 mi ENE 9.2 mph - N/A   Clear
12:36 AM 55.4 °F 28.4 °F 36% 29.23 in 10.0 mi NE 9.2 mph 18.4 mph N/A   Clear
12:56 AM 55.4 °F 28.4 °F 36% 29.23 in 10.0 mi ENE 19.6 mph 24.2 mph N/A   Clear
1:16 AM 55.4 °F 28.4 °F 36% 29.24 in 10.0 mi NE 9.2 mph 17.3 mph N/A   Clear
1:36 AM 55.4 °F 28.4 °F 36% 29.25 in 10.0 mi NE 11.5 mph 24.2 mph N/A   Clear
1:56 AM 55.4 °F 28.4 °F 36% 29.25 in 10.0 mi ENE 17.3 mph 20.7 mph N/A   Clear
2:16 AM 55.4 °F 28.4 °F 36% 29.26 in 10.0 mi NE 10.4 mph 25.3 mph N/A   Clear
2:36 AM 55.4 °F 28.4 °F 36% 29.27 in 10.0 mi NNE 13.8 mph 27.6 mph N/A   Clear
2:56 AM 55.4 °F 28.4 °F 36% 29.27 in 10.0 mi NNE 17.3 mph 23.0 mph N/A   Clear
3:16 AM 55.4 °F 28.4 °F 36% 29.27 in 10.0 mi NNE 13.8 mph 24.2 mph N/A   Clear
3:36 AM 55.4 °F 26.6 °F 33% 29.28 in 10.0 mi NE 6.9 mph 19.6 mph N/A   Clear
3:56 AM 55.4 °F 26.6 °F 33% 29.28 in 10.0 mi North 6.9 mph 16.1 mph N/A   Clear
4:16 AM 53.6 °F 26.6 °F 35% 29.28 in 10.0 mi West 6.9 mph - N/A   Clear
4:36 AM 51.8 °F 28.4 °F 41% 29.29 in 10.0 mi Calm Calm - N/A   Clear
4:56 AM 51.8 °F 28.4 °F 41% 29.29 in 10.0 mi West 3.5 mph - N/A   Partly Cloudy
5:16 AM 51.8 °F 30.2 °F 44% 29.29 in 10.0 mi Calm Calm - N/A   Partly Cloudy
5:36 AM 51.8 °F 28.4 °F 41% 29.30 in 10.0 mi SSE 4.6 mph - N/A   Clear
5:56 AM 50.0 °F 28.4 °F 43% 29.30 in 10.0 mi Calm Calm - N/A   Clear
6:16 AM 48.2 °F 30.2 °F 50% 29.31 in 10.0 mi Calm Calm - N/A   Partly Cloudy
6:36 AM 50.0 °F 28.4 °F 43% 29.31 in 10.0 mi West 4.6 mph - N/A   Partly Cloudy
6:56 AM 50.0 °F 30.2 °F 47% 29.31 in 10.0 mi SSW 3.5 mph - N/A   Scattered Clouds
7:16 AM 51.8 °F 28.4 °F 41% 29.32 in 10.0 mi West 8.1 mph - N/A   Scattered Clouds
7:36 AM 51.8 °F 28.4 °F 41% 29.33 in 10.0 mi Calm Calm - N/A   Scattered Clouds
7:56 AM 50.0 °F 28.4 °F 43% 29.33 in 10.0 mi Calm Calm - N/A   Mostly Cloudy
8:16 AM 48.2 °F 28.4 °F 46% 29.33 in 10.0 mi West 5.8 mph - N/A   Mostly Cloudy
8:36 AM 46.4 °F 28.4 °F 50% 29.34 in 10.0 mi Calm Calm - N/A   Mostly Cloudy
8:56 AM 46.4 °F 30.2 °F 53% 29.34 in 10.0 mi Calm Calm - N/A   Mostly Cloudy
9:16 AM 51.8 °F 30.2 °F 44% 29.35 in 10.0 mi Calm Calm - N/A   Mostly Cloudy
9:36 AM 50.0 °F 30.2 °F 47% 29.35 in 10.0 mi NNW 4.6 mph - N/A   Mostly Cloudy
9:56 AM 51.8 °F 30.2 °F 44% 29.35 in 10.0 mi SE 9.2 mph - N/A   Mostly Cloudy
10:16 AM 53.6 °F 30.2 °F 41% 29.36 in 10.0 mi SE 4.6 mph - N/A   Mostly Cloudy
10:36 AM 53.6 °F 32.0 °F 44% 29.36 in 10.0 mi SW 5.8 mph - N/A   Mostly Cloudy
10:56 AM 55.4 °F 30.2 °F 38% 29.36 in 10.0 mi West 11.5 mph - N/A   Mostly Cloudy
11:16 AM 55.4 °F 30.2 °F 38% 29.36 in 10.0 mi West 8.1 mph - N/A   Mostly Cloudy
11:36 AM 55.4 °F 30.2 °F 38% 29.37 in 10.0 mi ENE 4.6 mph - N/A   Mostly Cloudy
11:56 AM 57.2 °F 30.2 °F 36% 29.37 in 10.0 mi NNE 5.8 mph 18.4 mph N/A   Mostly Cloudy
12:16 PM 57.2 °F 30.2 °F 36% 29.37 in 10.0 mi East 20.7 mph 26.5 mph N/A   Mostly Cloudy
12:36 PM 57.2 °F 28.4 °F 33% 29.37 in 10.0 mi East 20.7 mph 28.8 mph N/A   Mostly Cloudy
12:56 PM 57.2 °F 28.4 °F 33% 29.38 in 10.0 mi East 19.6 mph 25.3 mph N/A   Mostly Cloudy
1:16 PM 57.2 °F 28.4 °F 33% 29.39 in 10.0 mi East 17.3 mph 28.8 mph N/A   Mostly Cloudy
1:36 PM 57.2 °F 28.4 °F 33% 29.39 in 10.0 mi East 16.1 mph 25.3 mph N/A   Mostly Cloudy
1:56 PM 57.2 °F 28.4 °F 33% 29.40 in 10.0 mi East 15.0 mph - N/A   Mostly Cloudy
2:16 PM 55.4 °F 30.2 °F 38% 29.41 in 10.0 mi East 11.5 mph 23.0 mph N/A   Mostly Cloudy
2:36 PM 55.4 °F 30.2 °F 38% 29.41 in 10.0 mi East 8.1 mph 19.6 mph N/A   Mostly Cloudy
2:56 PM 55.4 °F 30.2 °F 38% 29.41 in 10.0 mi ENE 10.4 mph - N/A   Mostly Cloudy
3:16 PM 55.4 °F 30.2 °F 38% 29.42 in 10.0 mi East 6.9 mph - N/A   Mostly Cloudy
3:36 PM 57.2 °F 30.2 °F 36% 29.42 in 10.0 mi Calm Calm - N/A   Mostly Cloudy
3:56 PM 57.2 °F 30.2 °F 36% 29.42 in 10.0 mi ESE 8.1 mph - N/A   Mostly Cloudy
4:16 PM 57.2 °F 30.2 °F 36% 29.43 in 10.0 mi NNE 6.9 mph 19.6 mph N/A   Mostly Cloudy
4:36 PM 57.2 °F 30.2 °F 36% 29.43 in 10.0 mi ENE 9.2 mph - N/A   Mostly Cloudy
4:56 PM 57.2 °F 30.2 °F 36% 29.43 in 10.0 mi Calm Calm - N/A   Mostly Cloudy
5:16 PM 57.2 °F 30.2 °F 36% 29.44 in 10.0 mi East 6.9 mph - N/A   Mostly Cloudy
5:36 PM 57.2 °F 30.2 °F 36% 29.44 in 10.0 mi ENE 6.9 mph - N/A   Mostly Cloudy
5:56 PM 55.4 °F 30.2 °F 38% 29.45 in 10.0 mi East 11.5 mph 16.1 mph N/A   Mostly Cloudy
6:16 PM 55.4 °F 30.2 °F 38% 29.45 in 10.0 mi East 8.1 mph - N/A   Mostly Cloudy
6:36 PM 55.4 °F 30.2 °F 38% 29.46 in 10.0 mi East 13.8 mph 18.4 mph N/A   Mostly Cloudy
6:56 PM 55.4 °F 30.2 °F 38% 29.47 in 10.0 mi NNE 3.5 mph - N/A   Mostly Cloudy
7:16 PM 55.4 °F 30.2 °F 38% 29.47 in 10.0 mi ENE 5.8 mph - N/A   Mostly Cloudy
7:36 PM 55.4 °F 30.2 °F 38% 29.47 in 10.0 mi NE 6.9 mph - N/A   Mostly Cloudy
7:56 PM 51.8 °F 32.0 °F 47% 29.48 in 10.0 mi WSW 3.5 mph - N/A   Mostly Cloudy
8:16 PM 53.6 °F 30.2 °F 41% 29.49 in 10.0 mi Calm Calm - N/A   Mostly Cloudy
8:36 PM 53.6 °F 32.0 °F 44% 29.49 in 10.0 mi WSW 4.6 mph - N/A   Mostly Cloudy
8:56 PM 51.8 °F 30.2 °F 44% 29.50 in 10.0 mi Calm Calm - N/A   Mostly Cloudy
9:16 PM 51.8 °F 32.0 °F 47% 29.51 in 10.0 mi Calm Calm - N/A   Mostly Cloudy
9:36 PM 50.0 °F 32.0 °F 50% 29.51 in 10.0 mi Calm Calm - N/A   Mostly Cloudy
9:56 PM 51.8 °F 33.8 °F 50% 29.52 in 10.0 mi Calm Calm - N/A   Overcast
10:16 PM 50.0 °F 30.2 °F 47% 29.52 in 10.0 mi Calm Calm - N/A   Overcast
10:36 PM 50.0 °F 33.8 °F 54% 29.53 in 10.0 mi West 5.8 mph - N/A   Overcast
10:56 PM 48.2 °F 33.8 °F 58% 29.54 in 10.0 mi South 5.8 mph - N/A   Overcast
11:16 PM 50.0 °F 33.8 °F 54% 29.55 in 10.0 mi Calm Calm - N/A   Overcast
11:36 PM 51.8 °F 33.8 °F 50% 29.55 in 10.0 mi SE 9.2 mph - N/A   Mostly Cloudy
11:56 PM 51.8 °F 33.8 °F 50% 29.56 in 10.0 mi ESE 6.9 mph - N/A   Overcast